Location: Ferques
(50.8300°N, 1.7599°E)
Time: 16:07:10
(UTC+00:00)

Lacrosse 5 rocket - Pass Details

Date: 19 May 2025
Orbit: 419 x 516 km, 57.0° (Epoch: 12 June)

Event Time Altitude Azimuth Distance (km) Brightness Sun altitude
Rises 21:19:24 0° 298° (WNW) 2,487 5.9 -11.9°
Reaches altitude 10° 21:21:41 10° 289° (WNW) 1,590 4.5 -12.1°
Maximum altitude 21:24:54 33° 224° (SW) 773 2.0 -12.4°
Enters shadow 21:26:45 19° 172° (S) 1,099 2.3 -12.6°
